Location: Borojevi?i
(45.0486°N, 16.2297°E)
Time: 17:18:29
(UTC+00:00)

Cosmos 1933 Rocket - Pass Details

Date: 08 August 2020
Orbit: 606 x 631 km, 82.5° (Epoch: 25 September)

Event Time Altitude Azimuth Distance (km) Brightness Sun altitude
Exits shadow 20:24:12 47° 140° (SE) 821 3.7 -19.5°
Maximum altitude 20:25:06 58° 94° (E) 731 3.6 -19.6°
Drops below altitude 10° 20:29:27 10° 16° (NNE) 2,007 6.6 -20.1°
Sets 20:31:43 0° 13° (NNE) 2,922 7.6 -20.4°
